Погода в Хакуринохабле

Россия / Республика Адыгея     45°01′09″N   40°14′10″E
темп.,
°C
ветер,
м/с
пор.,
м/с
влажн.,
%
обл.,
%
осадки,
мм/ч
давл.,
гПа
погр.,
м
24 мая, вт
вт2400:00+12з2395100 1.1 100879
03:00+10зюз3798100 2.5 1009223
06:00+11зюз279599 0.4 1010281
09:00+12з4690100 0.9 1011415
12:00+14сз348037 0.5 1011680
15:00+13зсз358883 2.5 1012225
18:00+12ссз369094 2.6 1013188
21:00+11з2393100 3.1 101574
25 мая, ср
ср2500:00+11юз359596 1.2 1016164
03:00+10зюз369789 2.0 1017166
06:00+10зюз24955 0.2 1018124
09:00+15з457220 0.5 1019518
12:00+18зсз45505 0.2 10191859
15:00+19з454733 0.2 10192269
18:00+17с246929 0.0 1020385
21:00+14юз2269100 0.0 102119
26 мая, чт
чт2600:00+13зюз237039 0.0 102138
03:00+10з34875 0.0 102266
06:00+10юз24885 0.0 102295
09:00+17юз22664 0.0 1022563
12:00+20зюз124822 0.0 10212072
15:00+21зсз234723 0.0 10201938
18:00+20сз236411 0.0 1019569
21:00+14зюз3475100 0.0 102054
27 мая, пт
пт2700:00+11з336041 0.0 102046
03:00+10зюз337577 0.0 102036
06:00+12юз247454 0.0 1020113
09:00+16з246790 0.0 1020322
12:00+20зсз4552100 0.0 1019959
15:00+21зсз455381 0.0 10181210
18:00+21зсз246517 0.0 1018553
21:00+15ююз22790 0.0 101912
28 мая, сб
сб2800:00+13ю22835 0.0 101811
03:00+12ююв22860 0.0 101711
06:00+13юв23860 0.0 101784
09:00+20вюв34665 0.0 1015489
12:00+24в22555 0.0 10141115
15:00+25ссз12486 0.0 10131810
18:00+24ссв22645 0.0 1013107
21:00+18св33734 0.0 101420